Location: Greenhawk Observatory
(37.3417°N, 122.0298°W)
Time: 21:41:57
(UTC-07:00)

Daily predictions for brighter satellites

Satellite Brightness Start Highest point End
(mag) Time Altitude Azimuth Time Altitude Azimuth Time Altitude Azimuth
SL-24 R/B - RUBIN 2 4.1 20:37:27 10° SSW 20:42:39 73° ESE 20:48:37 10° NE
Cosmos 2237 Rocket 2.7 20:40:05 10° SSW 20:45:38 66° WNW 20:51:16 10° NNE
PSLV R/B 4.4 20:47:12 10° SSW 20:50:15 27° SSE 20:53:20 10° E
GEOS 3 Rocket 3.7 20:45:24 10° SE 20:50:41 86° NE 20:55:57 10° NNW
Atlas Centaur 2 3.7 20:44:59 10° SSW 20:51:14 30° SSE 20:58:14 10° E
USA 186 1.4 20:48:59 10° SSE 20:51:56 86° ENE 20:54:43 10° N
Aureole 2 Rocket 3.7 20:50:23 10° SSE 20:53:46 26° ESE 20:56:57 10° NE
CZ-2D R/B 3.6 20:50:30 10° S 20:54:22 72° WSW 20:58:17 10° NNW
Cosmos 2228 4.3 20:51:03 10° NNE 20:54:39 24° ENE 20:58:14 10° SE
Cosmos 1025 Rocket 3.0 20:50:24 10° S 20:54:47 84° E 20:59:11 10° N
Cosmos 2278 Rocket 2.4 20:49:47 10° NNW 20:55:29 79° WSW 21:01:08 10° SSE
CZ-4 DEB 2.9 20:53:37 10° S 20:56:50 80° WSW 21:00:05 10° NNW
Cosmos 494 Rocket 4.1 20:53:08 10° S 20:58:05 53° ESE 21:03:04 10° NNE
Cosmos 1939 Rocket 4.1 20:54:52 10° SE 20:58:26 28° ENE 21:02:00 10° NNE
Cosmos 1892 Rocket 3.6 20:54:56 10° S 20:59:18 63° E 21:03:43 10° NNE
Milstar 3 Cent rocket 3.6 20:56:09 10° W 21:03:44 33° SSW 21:08:18 11° SE
COSMOS 2455 4.1 20:59:44 10° SSE 21:03:54 20° ESE 21:08:06 10° ENE
Cosmos 2219 Rocket 4.5 21:01:18 10° WSW 21:06:12 30° WNW 21:11:07 10° N
Cosmos 1666 3.8 21:03:32 10° NNE 21:06:57 28° ENE 21:09:52 13° SE
Cosmos 1500 4.0 21:04:28 10° NNW 21:08:15 53° W 21:12:02 10° S
OTV 4 2.8 21:07:39 10° WSW 21:09:26 15° SSW 21:11:12 10° S
SPOT 5 3.8 21:06:11 11° SE 21:09:37 26° ENE 21:13:15 10° NNE
Lacrosse 5 rocket 2.8 21:06:13 10° WSW 21:09:50 40° NW 21:13:38 10° NNE
SL-16 R/B 2.2 21:07:04 10° SSW 21:12:43 89° W 21:18:25 10° NNE
Gbstr 26 Del rocket 4.5 21:08:45 10° NW 21:16:06 88° NE 21:23:16 14° SE
Cosmos 1743 2.9 21:14:55 10° NNW 21:18:46 72° W 21:22:33 10° S
Cosmos 1331 Rocket 4.0 21:17:26 10° NNW 21:22:40 83° ENE 21:27:27 12° SSE
Tsikada Rocket 4.5 21:19:20 10° SSE 21:25:20 44° E 21:31:20 10° NNE
Cosmos 1726 Rocket 3.9 21:21:41 10° NNW 21:26:08 69° W 21:30:29 10° S
Okean 2 3.4 21:22:51 10° S 21:27:02 88° W 21:31:14 10° N
BREEZE M DEB (TANK) 3.7 21:24:54 10° NW 21:27:21 21° N 21:29:01 10° ENE
Meteor 1-23 Rocket 4.3 21:22:21 10° S 21:27:58 86° W 21:33:43 10° N
ALOS 3.7 21:26:14 10° SSW 21:30:31 37° W 21:34:51 10° NNW
Cosmos 1302 Rocket 4.2 21:26:52 10° N 21:32:02 58° ENE 21:35:46 19° SE
SeaSat 1 2.8 21:29:57 18° SE 21:33:29 53° ENE 21:38:17 10° NNW
Cosmos 2058 Rocket 3.3 21:33:08 10° NNW 21:37:29 68° W 21:41:48 10° S
Cosmos 2285 Rocket 4.0 21:31:11 10° NNW 21:37:32 89° WSW 21:43:00 15° SSE
CZ-2C R/B 2.7 21:36:37 10° SSW 21:38:32 22° W 21:40:28 10° NW
CZ-4B R/B 3.9 21:35:07 10° NNE 21:39:56 42° E 21:43:32 17° SSE
Cosmos 1603 3.7 21:36:04 10° S 21:41:34 59° ESE 21:47:05 10° NNE
Cosmos 1602 Rocket 3.5 21:38:29 11° S 21:42:41 68° E 21:47:08 10° NNE
PSLV R/B 3.2 21:41:55 31° SE 21:43:10 60° ENE 21:46:13 10° N
APEX 3.7 21:40:58 10° NNW 21:45:05 75° ENE 21:48:19 23° SSE
UNK 4.3 21:39:58 10° NNE 21:45:21 61° ESE 21:50:58 10° S
Cosmos 1461 3.5 21:41:39 10° NNW 21:45:46 43° NE 21:47:38 26° ESE
Meteor 2-9 Rocket 4.3 21:42:55 10° N 21:48:37 80° W 21:53:44 14° S
Timation 1 Rocket 4.4 21:42:45 10° NNW 21:48:45 65° ENE 21:52:25 24° SE
Cosmos 1464 Rocket 4.2 21:43:57 10° N 21:50:04 72° W 21:56:11 10° S
Cosmos 1812 Rocket 3.8 21:51:03 10° N 21:55:20 52° E 21:57:06 31° SE
Centaur D AC-28 3.4 21:56:04 10° SW 21:58:27 16° SSW 21:58:43 16° S
YAOGAN 6 3.0 21:59:25 37° ESE 22:00:20 46° ENE 22:03:56 10° N
ERS-1 Rocket 4.4 21:57:44 10° SSW 22:02:16 35° W 22:06:51 10° NNW
Envisat 3.2 22:00:03 19° S 22:03:42 69° WSW 22:08:46 10° NNW
Cosmos 1816 Rocket 4.5 21:59:14 17° S 22:04:17 70° E 22:10:36 10° NNE
H-2A R/B 3.6 22:02:40 10° SSW 22:06:24 31° W 22:10:14 10° NW
OAO 3 Copernicus 4.5 22:01:36 10° W 22:06:32 54° SSW 22:08:18 36° SE
Cosmos 1943 3.7 22:05:16 30° SE 22:07:09 38° ESE 22:12:22 10° NE
Cosmos 2034 Rocket 4.2 22:01:43 10° NNW 22:08:03 71° W 22:13:09 16° S
ATLAS 3B R/B 3.4 22:03:52 18° S 22:08:54 39° ESE 22:15:50 10° NE
Abrixas rocket 2.2 22:05:39 10° NW 22:09:05 90° NNE 22:09:36 62° SE
Cosmos 1634 Rocket 4.4 22:04:22 10° N 22:10:13 43° ENE 22:12:36 31° SE
Cosmos 1626 Rocket 4.4 22:11:54 10° SSW 22:16:13 49° W 22:20:31 10° N
USA 81 4.3 22:12:19 10° N 22:17:30 52° E 22:19:05 38° SE
USA 234 3.2 22:17:55 31° SE 22:21:24 81° NE 22:28:00 10° NW
Cosmos 1943 Rocket 4.2 22:18:38 10° NNE 22:21:33 14° NE 22:23:46 12° ENE
MetOp-A 4.3 22:19:03 28° S 22:21:55 71° WSW 22:27:17 10° NNW
CZ-4C R/B 3.8 22:27:06 47° E 22:27:36 50° ENE 22:31:38 10° N
PSLV R/B 3.5 22:24:10 10° WSW 22:27:43 72° NNW 22:28:21 55° NE
ISS0.322:35:41NE22:35:41NE22:25:33SW
Cosmos 1953 Rocket 3.6 22:32:44 54° E 22:32:53 54° E 22:37:12 10° NNE
Atlas Centaur 2 3.2 22:32:42 10° WSW 22:40:23 50° S 22:43:36 35° ESE
H-2A R/B 2.4 22:40:36 42° E 22:41:15 45° ENE 22:46:01 10° N
CZ-4 R/B 4.2 22:38:17 10° N 22:43:15 68° WNW 22:45:46 29° SSW
Cosmos 1992 Rocket 3.9 22:39:50 10° NNW 22:45:05 81° ENE 22:46:04 59° SSE
DELTA 2 DEB (DPAF) 4.0 22:45:03 71° SE 22:45:32 83° ENE 22:50:03 10° N
Cosmos 2346 Rocket 4.5 22:45:39 32° SSW 22:48:43 81° W 22:54:54 10° N
COSMOS 2455 3.4 22:43:25 10° SW 22:49:18 58° WNW 22:55:15 10° NNE
IGS 5A 4.2 22:49:42 40° ENE 22:49:42 40° ENE 22:53:15 10° N
SPOT 1/Viking Rocket 4.0 22:48:01 36° SSW 22:49:46 53° W 22:54:50 10° NNW
Cosmos 1953 4.3 22:47:21 10° NNE 22:49:19 18° NE 22:49:19 18° NE
Spot 4 4.3 22:53:33 44° ENE 22:53:40 44° ENE 22:58:12 10° N
Cosmos 2369 Rocket 2.2 22:48:17 10° NNW 22:53:56 66° ENE 22:54:55 55° ESE
ARGOS 3.4 22:52:25 44° SSW 22:54:01 64° WSW 22:59:25 10° NNW
Landsat 7 3.6 22:57:49 76° S 22:58:13 89° WSW 23:03:00 10° NNW
Cosmos 1190 Rocket 4.0 22:57:52 48° SSW 22:59:23 81° WNW 23:04:44 10° NNE
Geosat 4.4 22:54:26 10° NNE 22:59:24 61° WNW 23:02:23 24° SW
Cosmos-2242 4.2 22:55:31 10° NNE 22:58:51 33° ENE 22:58:51 33° ENE
DMSP B5D2-2 4.0 22:56:04 10° NNE 23:01:19 67° E 23:01:37 66° ESE
NOAA 11 4.5 23:01:03 45° SSW 23:02:27 59° W 23:07:48 10° NNW
Lacrosse 4 Rocket 2.2 23:07:37 42° NNE 23:07:37 42° NNE 23:10:24 10° NNE
Cosmos 1758 Rocket 3.6 23:07:23 74° WNW 23:07:23 74° WNW 23:11:42 10° N
Spot 2 4.2 23:02:43 10° NNE 23:07:31 84° ESE 23:07:38 82° SE
SeaSat 1 4.4 23:09:45 16° SW 23:11:14 18° WSW 23:14:31 10° WNW
Meteor 1-22 Rocket 4.2 23:05:44 10° NNW 23:11:18 76° W 23:12:16 61° SSW
CARTOSAT-1 3.7 23:11:49 73° NNW 23:11:49 73° NNW 23:15:45 10° NNW
SL-08 RB Rocket 4.4 23:11:32 42° WSW 23:11:56 43° W 23:16:17 10° NNW
COSMOS 2406 4.3 23:14:45 30° ENE 23:14:45 30° ENE 23:18:24 10° NE
Cosmos 1346 Rocket 3.7 23:14:09 45° WNW 23:14:09 45° WNW 23:17:38 10° N
Terra 1.7 23:14:06 87° NW 23:14:06 87° NW 23:18:48 10° NNW
Cosmos 676 Rocket 3.9 23:15:26 82° SE 23:15:35 83° ESE 23:20:57 10° NNE
Cosmos 2263 4.1 23:10:00 10° NNW 23:15:37 71° ENE 23:16:02 68° E
SL-24 R/B 4.5 23:14:25 10° N 23:19:19 75° W 23:19:42 70° SW
Cosmos 1140 Rocket 4.2 23:29:33 42° ENE 23:29:33 42° ENE 23:33:23 10° NNE
Cosmos 1092 Rocket 4.2 23:37:34 54° E 23:37:34 54° E 23:43:37 10° NNE
CZ-4C R/B 4.3 23:53:07 14° ENE 23:53:07 14° ENE 23:54:12 10° ENE
Nadezhda 4 Rocket 3.9 23:50:27 79° SSW 23:50:52 86° W 23:57:14 10° N
CZ-4B R/B 4.4 23:58:03 14° NNE 23:58:03 14° NNE 23:58:55 10° NNE
